(2016 TO11) |
Classification: Apollo [NEO] SPK-ID: 3760526 |
[ hide orbit diagram ]
For accurate long-term ephemerides, please instead use our Horizons system.This orbit viewer was implemented using two-body methods, and hence should not be used for determining accurate long-term trajectories (over several years or decades) or planetary encounter circumstances.
Orbital Elements at Epoch 2457668.5 (2016-Oct-07.0) TDB
Reference: JPL 6 (heliocentric ecliptic J2000)
Element | Value | Uncertainty (1-sigma) | Units |
e | .5470512818890449 | 0.0010214 | |
a | 2.069345027185258 | 0.0045088 | au |
q | .9373071773928422 | 7.1447e-05 | au |
i | 4.361044208463734 | 0.0062264 | deg |
node | 196.1684466762755 | 0.00074389 | deg |
peri | 218.4947728796621 | 0.00085653 | deg |
M | 349.139376465435 | 0.038999 | deg |
tp | 2457701.301979100012 (2016-Nov-08.80197910) | 0.010584 | TDB |
period | 1087.295995337832 2.98 | 3.5536 0.009729 | d yr |
n | .3310965933321082 | 0.0010821 | deg/d |
Q | 3.201382876977674 | 0.0069753 | au |
|
| | Orbit Determination Parameters
Additional Information
|
[ show covariance matrix ]
[ show close-approach data ]
|